Total_Precipitation_Accumulation
0.97 1.03 1.06 1.06 0.98 1.07 1.11 1.10 1.12 1.14 1.07 1.07 1.10 1.14 1.12 1.15 1.21 1.29 1.21 1.26 1.37 1.51 1.48 1.44 1.48 1.53 1.50 1.42 1.45 1.44 1.44 1.61 1.61 1.32 1.36 1.38 1.27 1.10 0.99 0.94 0.90 0.96 0.96
0.91 1.02 1.09 1.13 1.04 1.02 1.05 1.12 1.17 1.24 1.28 1.23 1.19 1.20 1.13 1.14 1.28 1.34 1.36 1.38 1.40 1.42 1.58 1.78 1.77 1.72 1.61 1.48 1.54 1.50 1.47 1.67 1.63 1.48 1.54 1.57 1.51 1.30 1.18 1.06 0.90 0.88 0.92
0.94 1.00 1.07 1.13 1.07 1.05 1.16 1.25 1.26 1.39 1.48 1.48 1.42 1.33 1.23 1.20 1.24 1.30 1.38 1.39 1.41 1.49 1.60 1.71 1.78 1.90 1.76 1.62 1.57 1.54 1.58 1.68 1.76 1.66 1.65 1.78 1.75 1.51 1.34 1.12 0.93 0.94 0.84
0.91 1.00 1.08 1.13 1.13 1.16 1.26 1.34 1.35 1.42 1.54 1.62 1.57 1.52 1.48 1.37 1.25 1.22 1.24 1.29 1.43 1.57 1.61 1.56 1.66 1.91 1.98 1.91 1.74 1.66 1.70 1.80 1.85 1.85 1.83 1.91 1.95 1.86 1.64 1.35 1.16 1.06 0.93
1.06 1.19 1.25 1.36 1.44 1.48 1.55 1.56 1.52 1.51 1.52 1.65 1.75 1.75 1.67 1.47 1.25 1.25 1.32 1.28 1.40 1.47 1.44 1.35 1.34 1.53 1.75 1.85 1.70 1.66 1.69 1.70 1.73 1.80 1.84 1.87 1.89 1.96 1.80 1.53 1.33 1.21 1.04
1.25 1.52 1.54 1.63 1.69 1.79 1.93 2.00 1.93 1.87 1.93 1.98 1.94 1.87 1.76 1.39 1.36 1.29 1.27 1.30 1.38 1.39 1.36 1.31 1.19 1.13 1.18 1.34 1.49 1.61 1.72 1.65 1.60 1.71 1.84 1.87 1.86 1.88 1.89 1.75 1.52 1.32 1.18
1.33 1.57 1.76 1.87 1.94 2.03 2.14 2.15 2.09 2.15 2.28 2.31 2.20 2.02 1.88 1.78 1.62 1.38 1.27 1.23 1.25 1.25 1.27 1.25 1.05 0.95 1.03 1.02 1.17 1.29 1.41 1.48 1.47 1.56 1.68 1.77 1.89 2.02 2.06 1.87 1.69 1.53 1.32
1.54 1.72 1.89 1.91 1.92 1.98 2.06 2.00 2.01 2.12 2.19 2.23 2.20 2.08 1.98 1.90 1.74 1.44 1.33 1.16 1.17 1.19 1.21 1.20 1.16 1.09 1.06 1.08 1.10 1.10 1.11 1.17 1.25 1.27 1.38 1.57 1.77 1.97 2.13 2.04 1.91 1.63 1.39
1.61 1.69 1.72 1.81 1.89 1.94 1.97 1.98 2.01 2.01 1.93 1.85 1.83 1.85 1.84 1.89 1.80 1.47 1.32 1.20 1.28 1.29 1.28 1.26 1.26 1.20 1.26 1.11 1.04 1.05 1.06 1.08 1.12 1.17 1.19 1.33 1.60 1.79 1.88 1.91 1.82 1.64 1.41
1.67 1.70 1.69 1.78 1.87 1.94 1.98 1.99 1.92 1.84 1.78 1.74 1.69 1.72 1.73 1.74 1.69 1.35 1.24 1.18 1.29 1.31 1.34 1.33 1.27 1.16 1.13 0.99 0.92 0.99 0.98 0.98 1.04 1.06 1.07 1.08 1.15 1.44 1.72 1.56 1.50 1.48 1.33
1.47 1.54 1.60 1.75 1.88 1.91 1.94 1.89 1.83 1.76 1.78 1.79 1.73 1.64 1.61 1.62 1.64 1.36 1.21 1.10 1.24 1.37 1.35 1.31 1.29 1.19 0.95 0.87 0.83 0.86 0.90 0.93 1.03 1.05 1.02 1.03 1.09 1.21 1.38 1.41 1.34 1.28 1.23
1.27 1.32 1.36 1.46 1.59 1.64 1.69 1.64 1.64 1.61 1.56 1.55 1.53 1.45 1.40 1.43 1.39 1.29 1.10 0.99 1.06 1.21 1.32 1.34 1.34 1.19 0.93 0.81 0.70 0.68 0.66 0.62 0.72 0.85 0.92 0.94 0.96 1.05 1.16 1.28 1.30 1.27 1.15
1.10 1.17 1.21 1.24 1.37 1.50 1.52 1.46 1.46 1.45 1.41 1.38 1.34 1.29 1.27 1.25 1.21 1.04 0.89 0.80 0.84 0.96 1.14 1.30 1.22 1.03 0.86 0.72 0.66 0.61 0.55 0.51 0.62 0.73 0.80 0.83 0.83 0.89 1.11 1.37 1.50 1.52 1.42
1.14 1.14 1.16 1.19 1.29 1.50 1.58 1.46 1.38 1.35 1.31 1.28 1.24 1.25 1.28 1.30 1.25 1.06 0.86 0.71 0.75 0.86 0.96 1.05 1.07 1.05 1.00 0.92 0.80 0.69 0.60 0.62 0.69 0.76 0.86 0.96 1.04 1.10 1.18 1.31 1.49 1.53 1.51
0.96 0.92 0.90 0.97 1.10 1.30 1.42 1.38 1.25 1.21 1.25 1.27 1.25 1.22 1.16 1.12 1.12 1.02 0.87 0.84 0.88 0.95 0.95 1.01 1.04 1.11 1.16 1.16 1.11 1.02 0.95 0.90 0.84 0.82 0.94 1.06 1.09 1.12 1.15 1.24 1.37 1.40 1.30
0.94 0.88 0.86 0.86 0.95 1.14 1.34 1.41 1.25 1.06 1.08 1.07 1.02 0.99 0.96 0.90 0.87 0.85 0.82 0.79 0.84 0.88 0.85 0.98 1.13 1.23 1.31 1.32 1.30 1.19 1.06 0.95 0.88 0.89 0.95 1.03 1.07 1.08 1.11 1.22 1.33 1.34 1.22
0.98 0.93 0.90 0.89 0.92 1.02 1.24 1.47 1.51 1.28 1.06 0.97 0.85 0.76 0.72 0.70 0.72 0.75 0.79 0.74 0.72 0.70 0.68 0.84 1.01 1.11 1.20 1.22 1.21 1.13 1.08 1.02 0.99 1.01 1.07 1.11 1.15 1.15 1.16 1.18 1.26 1.29 1.21
0.95 0.92 0.84 0.80 0.84 0.94 1.15 1.43 1.60 1.54 1.35 1.10 0.84 0.69 0.63 0.58 0.58 0.65 0.70 0.65 0.61 0.57 0.54 0.66 0.78 0.90 1.03 1.16 1.23 1.20 1.16 1.14 1.08 1.04 1.12 1.14 1.17 1.20 1.17 1.12 1.16 1.23 1.21
0.87 0.87 0.82 0.81 0.84 0.89 1.07 1.33 1.52 1.57 1.49 1.34 1.03 0.73 0.60 0.55 0.55 0.63 0.64 0.61 0.63 0.58 0.56 0.60 0.65 0.77 0.94 1.11 1.21 1.27 1.27 1.20 1.09 1.07 1.09 1.13 1.14 1.18 1.16 1.09 1.13 1.23 1.24
0.75 0.77 0.67 0.66 0.71 0.73 0.83 1.04 1.28 1.41 1.36 1.28 1.09 0.72 0.51 0.47 0.54 0.69 0.74 0.80 0.79 0.70 0.65 0.66 0.68 0.76 0.92 1.09 1.20 1.23 1.27 1.21 1.16 1.13 1.11 1.15 1.17 1.18 1.16 1.12 1.12 1.18 1.15
0.69 0.67 0.59 0.51 0.56 0.61 0.67 0.85 1.10 1.26 1.21 1.12 0.99 0.67 0.48 0.49 0.61 0.73 0.86 0.90 0.88 0.81 0.76 0.71 0.71 0.76 0.88 1.03 1.12 1.16 1.21 1.19 1.14 1.12 1.11 1.13 1.17 1.18 1.23 1.23 1.17 1.18 1.20
0.56 0.58 0.54 0.51 0.55 0.56 0.60 0.76 0.99 1.15 1.11 1.05 0.95 0.71 0.57 0.59 0.70 0.79 0.84 0.82 0.78 0.71 0.68 0.71 0.74 0.79 0.86 0.94 1.02 1.12 1.17 1.17 1.16 1.13 1.14 1.15 1.19 1.19 1.23 1.25 1.20 1.18 1.18
0.43 0.44 0.42 0.43 0.46 0.46 0.56 0.74 0.90 0.99 0.96 0.91 0.80 0.68 0.65 0.67 0.69 0.74 0.77 0.76 0.73 0.70 0.69 0.73 0.80 0.83 0.88 0.91 0.95 1.03 1.08 1.06 1.06 1.08 1.14 1.18 1.19 1.19 1.20 1.20 1.17 1.17 1.14
0.37 0.40 0.41 0.44 0.46 0.52 0.62 0.75 0.82 0.82 0.80 0.77 0.73 0.72 0.74 0.76 0.72 0.70 0.74 0.76 0.77 0.78 0.78 0.76 0.78 0.79 0.81 0.84 0.86 0.88 0.92 0.89 0.86 0.89 0.95 1.03 1.07 1.09 1.11 1.14 1.15 1.14 1.14
0.31 0.35 0.41 0.47 0.51 0.56 0.65 0.73 0.75 0.74 0.70 0.67 0.67 0.70 0.70 0.67 0.69 0.71 0.75 0.78 0.78 0.76 0.72 0.72 0.74 0.72 0.69 0.68 0.68 0.69 0.74 0.68 0.61 0.64 0.72 0.86 0.94 0.98 0.99 1.04 1.09 1.13 1.14
0.31 0.32 0.38 0.44 0.47 0.52 0.62 0.70 0.68 0.62 0.57 0.56 0.59 0.65 0.66 0.66 0.70 0.73 0.75 0.79 0.80 0.77 0.75 0.73 0.68 0.67 0.66 0.65 0.64 0.65 0.60 0.50 0.46 0.48 0.52 0.65 0.80 0.88 0.93 0.99 1.02 1.10 1.11